Weather History for Prague, Czech Republic

Change the Weather History Date:

Sunday, May 19, 2013

  Actual Average Record
Temperature  
Mean Temperature 58 °F -  
Max Temperature 72 °F 69 °F 78 °F (2011)
Min Temperature 43 °F 49 °F 37 °F (2005)
Degree Days  
Heating Degree Days 8    
Growing Degree Days 8 (Base 50)    
Moisture  
Dew Point 52 °F    
Average Humidity 77    
Maximum Humidity 100    
Minimum Humidity 51    
Precipitation  
Precipitation 0.47 in 0.10 in - ()
Sea Level Pressure  
Sea Level Pressure 29.74 in    
Wind  
Wind Speed 8 mph ()    
Max Wind Speed 33 mph    
Max Gust Speed 63 mph    
Visibility 6.5 miles    
Events Rain , Thunderstorm    
Averages and records for this station are not official NWS values.
T = Trace of Precipitation, MM = Missing Value Source: Averaged Metar Reports

Daily Weather History Graph

Daily Weather History Graph

Search for Another Location

Airport:

Trip Planner

Search our weather history database for the weather conditions in past years. The results will help you decide how hot, cold, wet, or windy it might be!

Date:

Astronomy

May. 19, 2013 Rise Set
Actual Time 5:11 AM CEST 8:48 PM CEST
Civil Twilight 4:31 AM CEST 9:28 PM CEST
Nautical Twilight 3:36 AM CEST 10:24 PM CEST
Astronomical Twilight 2:18 AM CEST 11:44 PM CEST
Moon 1:58 PM CEST (5/19) 2:04 AM CEST (5/19)
Length of Visible Light 16h 57m
Length of Day
15h 37m
Waxing Gibbous, 62% of the Moon is Illuminated
May 19
Waxing Gibbous
May 25
Full
May 31
Last Quarter
Jun 8
New
Jun 16
First Quarter

Hourly Weather History & Observations

Time (CEST) Temp. Windchill Dew Point Humidity Pressure Visibility Wind Dir Wind Speed Gust Speed Precip Events Conditions
12:00 AM 51.8 °F - 46.4 °F 82% 29.83 in - ENE 5.8 mph - N/A   Clear
12:30 AM 51.8 °F - 48.2 °F 88% 29.86 in - East 5.8 mph - N/A   Clear
1:00 AM 51.8 °F - 46.4 °F 82% 29.83 in - ENE 6.9 mph - N/A   Clear
1:30 AM 51.8 °F - 46.4 °F 82% 29.83 in - East 6.9 mph - N/A   Clear
2:00 AM 50 °F - 46 °F 80% 29.85 in 19 mi ENE 2.2 mph - -  
2:00 AM 50.0 °F - 46.4 °F 87% 29.83 in - NE 4.6 mph - N/A   Clear
2:30 AM 48.2 °F - 46.4 °F 93% 29.83 in - NE 4.6 mph - N/A   Clear
3:00 AM 48.2 °F - 46.4 °F 93% 29.83 in - ENE 4.6 mph - N/A   Clear
3:30 AM 48.2 °F - 46.4 °F 93% 29.80 in - East 4.6 mph - N/A   Clear
4:00 AM 46.4 °F 45.2 °F 44.6 °F 93% 29.80 in - ENE 3.5 mph - N/A   Clear
4:30 AM 48.2 °F - 46.4 °F 93% 29.80 in - NE 4.6 mph - N/A   Clear
5:00 AM 44.6 °F 43.1 °F 42.8 °F 93% 29.80 in - NNE 3.5 mph - N/A   Clear
5:30 AM 44.6 °F 42.2 °F 44.6 °F 100% 29.80 in - NNE 4.6 mph - N/A   Clear
6:00 AM 44.6 °F 42.2 °F 42.8 °F 93% 29.80 in - NNE 4.6 mph - N/A   Clear
6:30 AM 46.4 °F - 44.6 °F 93% 29.80 in - Variable 2.3 mph - N/A   Clear
7:00 AM 51.8 °F - 50.0 °F 94% 29.80 in - NE 3.5 mph - N/A   Clear
7:30 AM 53.6 °F - 50.0 °F 88% 29.80 in - East 3.5 mph - N/A   Clear
8:00 AM 56 °F - 50 °F 75% 29.80 in 12 mi East 4.5 mph - -   Clear
8:00 AM 57.2 °F - 50.0 °F 77% 29.80 in - ENE 4.6 mph - N/A   Clear
8:30 AM 59.0 °F - 51.8 °F 77% 29.80 in - East 5.8 mph - N/A   Clear
9:00 AM 60.8 °F - 51.8 °F 72% 29.77 in - East 5.8 mph - N/A   Clear
9:30 AM 60.8 °F - 51.8 °F 72% 29.77 in - ENE 4.6 mph - N/A   Clear
10:00 AM 62.6 °F - 51.8 °F 68% 29.77 in - NE 5.8 mph - N/A   Clear
10:30 AM 62.6 °F - 51.8 °F 68% 29.74 in - NE 8.1 mph - N/A   Clear
11:00 AM 64.4 °F - 53.6 °F 68% 29.74 in - ENE 9.2 mph - N/A   Clear
11:30 AM 64.4 °F - 51.8 °F 64% 29.74 in - ENE 12.7 mph - N/A   Clear
12:00 PM 66.2 °F - 53.6 °F 64% 29.74 in 6.2 mi ENE 12.7 mph - N/A   Partly Cloudy
12:30 PM 66.2 °F - 53.6 °F 64% 29.74 in 6.2 mi East 13.8 mph - N/A   Partly Cloudy
1:00 PM 68.0 °F - 53.6 °F 60% 29.74 in 6.2 mi ENE 12.7 mph - N/A   Partly Cloudy
1:30 PM 68.0 °F - 53.6 °F 60% 29.74 in 6.2 mi East 13.8 mph - N/A   Partly Cloudy
2:00 PM 69 °F - 55 °F 51% 29.70 in 44 mi East 13.4 mph - -   Scattered Clouds
2:00 PM 69.8 °F - 53.6 °F 56% 29.74 in 6.2 mi ENE 13.8 mph - N/A   Partly Cloudy
2:30 PM 69.8 °F - 53.6 °F 56% 29.71 in 6.2 mi ENE 12.7 mph - N/A   Partly Cloudy
3:00 PM 69.8 °F - 55.4 °F 60% 29.71 in 6.2 mi East 12.7 mph - N/A   Partly Cloudy
3:30 PM 71.6 °F - 55.4 °F 57% 29.71 in 6.2 mi East 12.7 mph - N/A   Partly Cloudy
4:00 PM 71.6 °F - 55.4 °F 57% 29.68 in 6.2 mi ENE 13.8 mph - N/A   Partly Cloudy
4:30 PM 71.6 °F - 55.4 °F 57% 29.68 in 6.2 mi ENE 11.5 mph - N/A   Partly Cloudy
5:00 PM 71.6 °F - 53.6 °F 53% 29.68 in 6.2 mi ENE 13.8 mph - N/A   Partly Cloudy
5:30 PM 71.6 °F - 53.6 °F 53% 29.68 in 6.2 mi East 12.7 mph - N/A   Partly Cloudy
6:00 PM 71.6 °F - 55.4 °F 57% 29.65 in 6.2 mi ENE 13.8 mph - N/A   Partly Cloudy
6:30 PM 71.6 °F - 55.4 °F 57% 29.65 in 6.2 mi ENE 12.7 mph - N/A   Partly Cloudy
7:00 PM 69.8 °F - 55.4 °F 60% 29.65 in 6.2 mi NE 8.1 mph - N/A   Partly Cloudy
7:30 PM 68.0 °F - 57.2 °F 68% 29.65 in 6.2 mi East 8.1 mph - N/A   Partly Cloudy
8:00 PM 68 °F - 57 °F 59% 29.61 in 31 mi East 6.7 mph - - Thunderstorm Thunderstorm
8:00 PM 68.0 °F - 57.2 °F 68% 29.65 in 6.2 mi East 8.1 mph - N/A Thunderstorm Partly Cloudy
8:02 PM 68.0 °F - 55.4 °F 64% 29.65 in 6.2 mi South 16.1 mph 28.8 mph N/A Rain , Thunderstorm Light Thunderstorms and Rain
8:04 PM 66.2 °F - 53.6 °F 64% 29.65 in 6.2 mi WSW 20.7 mph 43.7 mph N/A Rain , Thunderstorm Light Thunderstorms and Rain
8:09 PM 60.8 °F - 51.8 °F 72% 29.68 in 6.2 mi WSW 33.4 mph 63.3 mph N/A Rain , Thunderstorm Light Thunderstorms and Rain
8:18 PM 57.2 °F - 53.6 °F 88% 29.68 in 5.0 mi WSW 28.8 mph 44.9 mph N/A Rain , Thunderstorm Thunderstorms and Rain
8:21 PM 57.2 °F - 53.6 °F 88% 29.68 in 2.5 mi WSW 27.6 mph 41.4 mph N/A Rain , Thunderstorm Thunderstorms and Rain
8:30 PM 55.4 °F - 53.6 °F 94% 29.68 in 4.3 mi WSW 27.6 mph 40.3 mph N/A Rain , Thunderstorm Thunderstorms and Rain
9:00 PM 55.4 °F - 55.4 °F 100% 29.71 in 4.3 mi WSW 16.1 mph - N/A Rain , Thunderstorm Thunderstorms and Rain
9:13 PM 57.2 °F - 55.4 °F 94% 29.71 in 6.2 mi SW 18.4 mph - N/A Rain , Thunderstorm Light Thunderstorms and Rain
9:30 PM 57.2 °F - 55.4 °F 94% 29.71 in 6.2 mi SW 12.7 mph - N/A Rain , Thunderstorm Light Thunderstorms and Rain
10:00 PM 55.4 °F - 55.4 °F 100% 29.71 in 6.2 mi West 9.2 mph - N/A Rain Light Rain Showers
10:30 PM 55.4 °F - 53.6 °F 94% 29.71 in 6.2 mi SSW 9.2 mph - N/A   Scattered Clouds
10:38 PM 55.4 °F - 55.4 °F 100% 29.74 in 6.2 mi SW 11.5 mph - N/A   Mostly Cloudy
11:00 PM 55.4 °F - 53.6 °F 94% 29.74 in 6.2 mi SW 12.7 mph - N/A   Mostly Cloudy
11:30 PM 51.8 °F - 50.0 °F 94% 29.74 in 6.2 mi SW 13.8 mph - N/A   Mostly Cloudy